Location: Zagreb
(45.8000°N, 16.0000°E)
Time: 15:31:28
(UTC+02:00)

Vanguard 1 - Pass Details

Date: 09 August 2022
Orbit: 649 x 3832 km, 34.2° (Epoch: 25 September)

Event Time Altitude Azimuth Distance (km) Brightness Sun altitude
Rises 07:40:50 0° 254° (WSW) 6,744 13.7 18.1°
Reaches altitude 10° 07:44:51 10° 251° (WSW) 6,046 13.6 18.8°
Maximum altitude 08:05:14 61° 178° (S) 4,145 13.6 22.3°
Drops below altitude 10° 08:26:59 10° 106° (ESE) 6,388 15.9 26.1°
Sets 08:31:23 0° 103° (ESE) 7,125 15.7 26.9°
